Time,TemperatureF,DewpointF,PressureIn,WindDirection,WindDirectionDegrees,WindSpeedMPH,WindSpeedGustMPH,Humidity,HourlyPrecipIn,Conditions,Clouds,dailyrainin,SoftwareType,DateUTC
2013-07-11 00:00:00,79.5,73.2,30.03,SW,233,0.0,0.0,81,0.00,,,0.00,Wunderground v.1.15,2013-07-11 04:00:00,
2013-07-11 00:05:00,79.3,73.3,30.03,SW,233,0.0,0.0,82,0.00,,,0.00,Wunderground v.1.15,2013-07-11 04:05:00,
2013-07-11 00:10:00,79.1,73.1,30.03,SW,233,0.0,0.0,82,0.00,,,0.00,Wunderground v.1.15,2013-07-11 04:10:00,
2013-07-11 00:15:00,78.8,73.2,30.03,SW,233,0.0,0.0,83,0.00,,,0.00,Wunderground v.1.15,2013-07-11 04:15:00,
2013-07-11 00:20:00,78.6,73.0,30.02,SW,233,0.0,0.0,83,0.00,,,0.00,Wunderground v.1.15,2013-07-11 04:20:00,
2013-07-11 00:25:00,78.4,73.2,30.02,SW,233,0.0,0.0,84,0.00,,,0.00,Wunderground v.1.15,2013-07-11 04:25:00,
2013-07-11 00:30:00,78.2,73.0,30.02,SW,233,0.0,0.0,84,0.00,,,0.00,Wunderground v.1.15,2013-07-11 04:30:00,
2013-07-11 00:35:00,78.0,72.8,30.02,SW,233,0.0,0.0,84,0.00,,,0.00,Wunderground v.1.15,2013-07-11 04:35:00,
2013-07-11 00:45:00,77.6,72.7,30.02,SW,233,0.0,0.0,85,0.00,,,0.00,Wunderground v.1.15,2013-07-11 04:45:00,
2013-07-11 00:50:00,77.4,72.5,30.02,SW,233,0.0,0.0,85,0.00,,,0.00,Wunderground v.1.15,2013-07-11 04:50:00,
2013-07-11 00:55:00,77.2,72.7,30.02,SW,233,0.0,0.0,86,0.00,,,0.00,Wunderground v.1.15,2013-07-11 04:55:00,
2013-07-11 01:05:00,76.9,72.4,30.01,SW,233,0.0,0.0,86,0.00,,,0.00,Wunderground v.1.15,2013-07-11 05:05:00,
2013-07-11 01:10:00,76.7,72.2,30.01,SW,233,0.0,0.0,86,0.00,,,0.00,Wunderground v.1.15,2013-07-11 05:10:00,
2013-07-11 01:20:00,76.5,72.3,30.01,SW,233,0.0,0.0,87,0.00,,,0.00,Wunderground v.1.15,2013-07-11 05:20:00,
2013-07-11 01:25:00,76.3,72.5,30.01,SW,233,0.0,0.0,88,0.00,,,0.00,Wunderground v.1.15,2013-07-11 05:25:00,
2013-07-11 01:35:00,76.0,72.2,30.00,SW,233,0.0,0.0,88,0.00,,,0.00,Wunderground v.1.15,2013-07-11 05:35:00,
2013-07-11 01:45:00,75.6,72.1,30.00,SW,233,0.0,0.0,89,0.00,,,0.00,Wunderground v.1.15,2013-07-11 05:45:00,
2013-07-11 01:50:00,75.5,72.0,30.00,SW,233,0.0,0.0,89,0.00,,,0.00,Wunderground v.1.15,2013-07-11 05:50:00,
2013-07-11 02:00:00,75.2,72.1,30.00,SW,233,0.0,0.0,90,0.00,,,0.00,Wunderground v.1.15,2013-07-11 06:00:00,
2013-07-11 02:05:00,75.1,72.0,30.00,SW,233,0.0,0.0,90,0.00,,,0.00,Wunderground v.1.15,2013-07-11 06:05:00,
2013-07-11 02:15:00,74.9,72.1,30.00,SW,233,0.0,0.0,91,0.00,,,0.00,Wunderground v.1.15,2013-07-11 06:15:00,
2013-07-11 02:20:00,74.9,72.1,30.00,SW,233,0.0,0.0,91,0.00,,,0.00,Wunderground v.1.15,2013-07-11 06:20:00,
2013-07-11 02:25:00,74.8,72.0,30.00,SW,233,0.0,0.0,91,0.00,,,0.00,Wunderground v.1.15,2013-07-11 06:25:00,
2013-07-11 02:35:00,74.7,71.9,29.99,SW,233,0.0,0.0,91,0.00,,,0.00,Wunderground v.1.15,2013-07-11 06:35:00,
2013-07-11 02:45:00,74.5,71.7,30.00,SW,233,0.0,0.0,91,0.00,,,0.00,Wunderground v.1.15,2013-07-11 06:45:00,
2013-07-11 02:50:00,74.4,71.6,30.00,SW,233,0.0,0.0,91,0.00,,,0.00,Wunderground v.1.15,2013-07-11 06:50:00,
2013-07-11 03:00:00,74.3,71.8,29.99,SW,233,0.0,0.0,92,0.00,,,0.00,Wunderground v.1.15,2013-07-11 07:00:00,
2013-07-11 03:05:00,74.2,71.7,29.99,SW,233,0.0,0.0,92,0.00,,,0.00,Wunderground v.1.15,2013-07-11 07:05:00,
2013-07-11 03:10:00,74.1,71.6,29.99,SW,233,0.0,0.0,92,0.00,,,0.00,Wunderground v.1.15,2013-07-11 07:10:00,
2013-07-11 03:15:00,74.1,71.6,29.99,SW,233,0.0,0.0,92,0.00,,,0.00,Wunderground v.1.15,2013-07-11 07:15:00,
2013-07-11 03:25:00,74.0,71.8,29.99,SW,233,0.0,0.0,93,0.00,,,0.00,Wunderground v.1.15,2013-07-11 07:25:00,
2013-07-11 03:30:00,73.9,71.7,29.98,SW,233,0.0,0.0,93,0.00,,,0.00,Wunderground v.1.15,2013-07-11 07:30:00,
2013-07-11 03:40:00,73.9,71.7,29.98,SW,233,0.0,0.0,93,0.00,,,0.00,Wunderground v.1.15,2013-07-11 07:40:00,
2013-07-11 03:45:00,73.9,71.7,29.98,SSW,192,0.0,0.0,93,0.00,,,0.00,Wunderground v.1.15,2013-07-11 07:45:00,
2013-07-11 03:55:00,74.0,71.8,29.98,SSW,213,0.0,0.0,93,0.00,,,0.00,Wunderground v.1.15,2013-07-11 07:55:00,
2013-07-11 04:00:00,74.1,71.9,29.98,ESE,104,0.0,0.0,93,0.00,,,0.00,Wunderground v.1.15,2013-07-11 08:00:00,
2013-07-11 04:05:00,74.1,71.9,29.97,ENE,63,0.0,0.0,93,0.00,,,0.00,Wunderground v.1.15,2013-07-11 08:05:00,
2013-07-11 04:15:00,74.3,71.8,29.97,East,84,0.0,0.0,92,0.00,,,0.00,Wunderground v.1.15,2013-07-11 08:15:00,
2013-07-11 04:20:00,74.3,71.8,29.97,SW,218,0.0,0.0,92,0.00,,,0.00,Wunderground v.1.15,2013-07-11 08:20:00,
2013-07-11 04:25:00,74.4,71.9,29.97,SSW,198,0.0,0.0,92,0.00,,,0.00,Wunderground v.1.15,2013-07-11 08:25:00,
2013-07-11 04:35:00,74.5,71.7,29.98,SE,134,0.0,0.0,91,0.00,,,0.00,Wunderground v.1.15,2013-07-11 08:35:00,
2013-07-11 04:40:00,74.6,71.8,29.98,SSW,213,0.0,2.0,91,0.00,,,0.00,Wunderground v.1.15,2013-07-11 08:40:00,
2013-07-11 04:45:00,74.6,71.8,29.98,SSW,213,0.0,2.0,91,0.00,,,0.00,Wunderground v.1.15,2013-07-11 08:45:00,
2013-07-11 04:55:00,74.5,72.0,29.99,SSW,213,0.0,0.0,92,0.00,,,0.00,Wunderground v.1.15,2013-07-11 08:55:00,
2013-07-11 05:05:00,74.4,71.9,29.99,SSW,213,0.0,0.0,92,0.00,,,0.00,Wunderground v.1.15,2013-07-11 09:05:00,
2013-07-11 05:15:00,74.2,71.7,29.99,SSW,213,0.0,0.0,92,0.00,,,0.00,Wunderground v.1.15,2013-07-11 09:15:00,
2013-07-11 05:25:00,74.0,71.8,29.99,SSW,213,0.0,0.0,93,0.00,,,0.00,Wunderground v.1.15,2013-07-11 09:25:00,
2013-07-11 05:30:00,73.9,71.7,29.99,SSW,213,0.0,0.0,93,0.00,,,0.00,Wunderground v.1.15,2013-07-11 09:30:00,
2013-07-11 05:40:00,73.8,71.6,29.99,SSW,213,0.0,0.0,93,0.00,,,0.00,Wunderground v.1.15,2013-07-11 09:40:00,
2013-07-11 05:45:00,73.8,71.6,29.99,SSW,213,0.0,0.0,93,0.00,,,0.00,Wunderground v.1.15,2013-07-11 09:45:00,
2013-07-11 05:55:00,73.8,72.0,29.99,SSW,213,0.0,0.0,94,0.00,,,0.00,Wunderground v.1.15,2013-07-11 09:55:00,
2013-07-11 06:00:00,73.7,71.9,29.99,SSW,213,0.0,0.0,94,0.00,,,0.00,Wunderground v.1.15,2013-07-11 10:00:00,
2013-07-11 06:10:00,73.4,71.6,29.99,SSW,213,0.0,0.0,94,0.00,,,0.00,Wunderground v.1.15,2013-07-11 10:10:00,
2013-07-11 06:20:00,73.2,71.4,29.99,SSW,213,0.0,0.0,94,0.00,,,0.00,Wunderground v.1.15,2013-07-11 10:20:00,
2013-07-11 06:25:00,73.0,71.2,29.99,SSW,213,0.0,0.0,94,0.00,,,0.00,Wunderground v.1.15,2013-07-11 10:25:00,
2013-07-11 06:35:00,72.8,71.3,29.99,SSW,213,0.0,0.0,95,0.00,,,0.00,Wunderground v.1.15,2013-07-11 10:35:00,
2013-07-11 06:40:00,72.7,71.2,30.00,SSW,213,0.0,0.0,95,0.00,,,0.00,Wunderground v.1.15,2013-07-11 10:40:00,
2013-07-11 06:45:00,72.6,71.1,30.00,SSW,213,0.0,0.0,95,0.00,,,0.00,Wunderground v.1.15,2013-07-11 10:45:00,
2013-07-11 06:55:00,72.6,71.1,30.00,SSW,213,0.0,0.0,95,0.00,,,0.00,Wunderground v.1.15,2013-07-11 10:55:00,
2013-07-11 07:05:00,72.6,71.4,30.00,SSW,213,0.0,0.0,96,0.00,,,0.00,Wunderground v.1.15,2013-07-11 11:05:00,
2013-07-11 07:15:00,72.8,71.6,30.00,ENE,74,0.0,0.0,96,0.00,,,0.00,Wunderground v.1.15,2013-07-11 11:15:00,
2013-07-11 07:20:00,73.0,71.8,30.00,SSE,147,0.0,0.0,96,0.00,,,0.00,Wunderground v.1.15,2013-07-11 11:20:00,
2013-07-11 07:30:00,73.4,72.2,29.99,South,184,0.0,0.0,96,0.00,,,0.00,Wunderground v.1.15,2013-07-11 11:30:00,
2013-07-11 07:35:00,73.7,72.2,29.99,SW,215,0.0,0.0,95,0.00,,,0.00,Wunderground v.1.15,2013-07-11 11:35:00,
2013-07-11 07:45:00,74.5,72.7,29.99,East,79,0.0,1.0,94,0.00,,,0.00,Wunderground v.1.15,2013-07-11 11:45:00,
2013-07-11 07:50:00,75.1,73.3,29.99,SSE,150,0.0,2.0,94,0.00,,,0.00,Wunderground v.1.15,2013-07-11 11:50:00,
2013-07-11 08:00:00,76.2,73.4,29.99,SW,227,1.0,1.0,91,0.00,,,0.00,Wunderground v.1.15,2013-07-11 12:00:00,
2013-07-11 08:05:00,76.8,73.6,29.99,SSE,148,1.0,1.0,90,0.00,,,0.00,Wunderground v.1.15,2013-07-11 12:05:00,
2013-07-11 08:10:00,77.4,73.6,29.99,South,186,1.0,2.0,88,0.00,,,0.00,Wunderground v.1.15,2013-07-11 12:10:00,
2013-07-11 08:20:00,78.5,74.3,29.99,SW,223,1.0,1.0,87,0.00,,,0.00,Wunderground v.1.15,2013-07-11 12:20:00,
2013-07-11 08:25:00,78.9,74.0,29.99,SSE,162,1.0,2.0,85,0.00,,,0.00,Wunderground v.1.15,2013-07-11 12:25:00,
2013-07-11 08:35:00,79.4,74.5,30.00,South,186,2.0,3.0,85,0.00,,,0.00,Wunderground v.1.15,2013-07-11 12:35:00,
2013-07-11 08:40:00,79.9,74.6,30.00,SSE,161,1.0,1.0,84,0.00,,,0.00,Wunderground v.1.15,2013-07-11 12:40:00,
2013-07-11 08:50:00,81.0,75.0,30.00,West,271,1.0,2.0,82,0.00,,,0.00,Wunderground v.1.15,2013-07-11 12:50:00,
2013-07-11 08:55:00,81.2,75.2,30.00,SSW,197,2.0,3.0,82,0.00,,,0.00,Wunderground v.1.15,2013-07-11 12:55:00,
2013-07-11 09:05:00,81.5,75.5,30.00,WSW,255,2.0,3.0,82,0.00,,,0.00,Wunderground v.1.15,2013-07-11 13:05:00,
2013-07-11 09:10:00,81.6,75.2,30.00,SSW,207,2.0,2.0,81,0.00,,,0.00,Wunderground v.1.15,2013-07-11 13:10:00,
2013-07-11 09:20:00,82.0,75.2,30.00,SW,236,2.0,2.0,80,0.00,,,0.00,Wunderground v.1.15,2013-07-11 13:20:00,
2013-07-11 09:30:00,82.7,75.5,30.00,WSW,241,2.0,3.0,79,0.00,,,0.00,Wunderground v.1.15,2013-07-11 13:30:00,
2013-07-11 09:35:00,83.0,75.0,30.00,WSW,246,2.0,3.0,77,0.00,,,0.00,Wunderground v.1.15,2013-07-11 13:35:00,
2013-07-11 09:40:00,83.2,75.2,30.00,SSE,157,2.0,5.0,77,0.00,,,0.00,Wunderground v.1.15,2013-07-11 13:40:00,
2013-07-11 09:45:00,83.5,75.1,30.00,SW,228,2.0,5.0,76,0.00,,,0.00,Wunderground v.1.15,2013-07-11 13:45:00,
2013-07-11 09:55:00,84.4,74.8,30.00,South,186,2.0,3.0,73,0.00,,,0.00,Wunderground v.1.15,2013-07-11 13:55:00,
2013-07-11 10:05:00,84.8,74.3,30.00,WSW,249,2.0,2.0,71,0.00,,,0.00,Wunderground v.1.15,2013-07-11 14:05:00,
2013-07-11 10:15:00,85.0,75.0,30.00,West,262,2.0,6.0,72,0.00,,,0.00,Wunderground v.1.15,2013-07-11 14:15:00,
2013-07-11 10:20:00,85.2,74.3,30.00,SW,230,2.0,3.0,70,0.00,,,0.00,Wunderground v.1.15,2013-07-11 14:20:00,
2013-07-11 10:25:00,85.3,74.4,30.00,SW,234,2.0,3.0,70,0.00,,,0.00,Wunderground v.1.15,2013-07-11 14:25:00,
2013-07-11 10:35:00,85.9,74.5,30.00,WSW,254,2.0,2.0,69,0.00,,,0.00,Wunderground v.1.15,2013-07-11 14:35:00,
2013-07-11 10:40:00,85.9,74.5,30.00,WSW,254,2.0,2.0,69,0.00,,,0.00,Wunderground v.1.15,2013-07-11 14:40:00,
2013-07-11 10:50:00,85.5,74.2,30.00,WSW,248,2.0,2.0,69,0.00,,,0.00,Wunderground v.1.15,2013-07-11 14:50:00,
2013-07-11 10:55:00,85.5,74.2,30.00,West,264,2.0,2.0,69,0.00,,,0.00,Wunderground v.1.15,2013-07-11 14:55:00,
2013-07-11 11:00:00,85.9,75.0,30.00,WSW,252,1.0,2.0,70,0.00,,,0.00,Wunderground v.1.15,2013-07-11 15:00:00,
2013-07-11 11:10:00,86.5,75.1,30.00,WSW,257,2.0,2.0,69,0.00,,,0.00,Wunderground v.1.15,2013-07-11 15:10:00,
2013-07-11 11:20:00,86.5,74.7,30.00,West,267,2.0,3.0,68,0.00,,,0.00,Wunderground v.1.15,2013-07-11 15:20:00,
2013-07-11 11:25:00,86.2,74.8,30.00,SW,231,2.0,3.0,69,0.00,,,0.00,Wunderground v.1.15,2013-07-11 15:25:00,
2013-07-11 11:35:00,85.8,74.4,30.00,WSW,257,1.0,2.0,69,0.00,,,0.00,Wunderground v.1.15,2013-07-11 15:35:00,
2013-07-11 11:40:00,85.9,75.0,30.00,SSW,207,1.0,1.0,70,0.00,,,0.00,Wunderground v.1.15,2013-07-11 15:40:00,
2013-07-11 11:45:00,87.0,75.2,29.99,SE,130,2.0,2.0,68,0.00,,,0.00,Wunderground v.1.15,2013-07-11 15:45:00,
2013-07-11 11:55:00,88.3,75.5,29.99,South,179,2.0,3.0,66,0.00,,,0.00,Wunderground v.1.15,2013-07-11 15:55:00,
2013-07-11 12:05:00,89.5,75.2,29.99,SSW,205,2.0,3.0,63,0.00,,,0.00,Wunderground v.1.15,2013-07-11 16:05:00,
2013-07-11 12:10:00,89.6,75.3,29.99,SW,215,1.0,3.0,63,0.00,,,0.00,Wunderground v.1.15,2013-07-11 16:10:00,
2013-07-11 12:20:00,88.6,74.9,29.99,SSW,204,2.0,2.0,64,0.00,,,0.00,Wunderground v.1.15,2013-07-11 16:20:00,
2013-07-11 12:25:00,89.0,75.2,29.98,SSE,165,2.0,3.0,64,0.00,,,0.00,Wunderground v.1.15,2013-07-11 16:25:00,
2013-07-11 12:30:00,89.5,75.2,29.98,SW,227,2.0,2.0,63,0.00,,,0.00,Wunderground v.1.15,2013-07-11 16:30:00,
2013-07-11 12:40:00,88.9,75.6,29.98,WSW,254,2.0,2.0,65,0.00,,,0.00,Wunderground v.1.15,2013-07-11 16:40:00,
2013-07-11 12:45:00,88.6,74.9,29.98,WSW,245,2.0,2.0,64,0.00,,,0.00,Wunderground v.1.15,2013-07-11 16:45:00,
2013-07-11 12:55:00,88.8,75.0,29.98,SE,134,2.0,2.0,64,0.00,,,0.00,Wunderground v.1.15,2013-07-11 16:55:00,
2013-07-11 13:00:00,89.5,74.8,29.97,South,177,1.0,2.0,62,0.00,,,0.00,Wunderground v.1.15,2013-07-11 17:00:00,
2013-07-11 13:10:00,90.5,74.7,29.97,SSW,193,1.0,4.0,60,0.00,,,0.00,Wunderground v.1.15,2013-07-11 17:10:00,
2013-07-11 13:25:00,90.0,74.2,29.96,SW,227,1.0,3.0,60,0.00,,,0.00,Wunderground v.1.15,2013-07-11 17:25:00,
2013-07-11 13:30:00,90.4,74.1,29.96,SE,131,2.0,5.0,59,0.00,,,0.00,Wunderground v.1.15,2013-07-11 17:30:00,
2013-07-11 13:40:00,90.8,72.9,29.95,ESE,116,1.0,1.0,56,0.00,,,0.00,Wunderground v.1.15,2013-07-11 17:40:00,
2013-07-11 13:45:00,90.3,73.0,29.95,SSW,202,1.0,1.0,57,0.00,,,0.00,Wunderground v.1.15,2013-07-11 17:45:00,
2013-07-11 13:50:00,90.1,73.3,29.95,SW,234,1.0,3.0,58,0.00,,,0.00,Wunderground v.1.15,2013-07-11 17:50:00,
2013-07-11 14:00:00,90.1,73.3,29.95,West,267,2.0,3.0,58,0.00,,,0.00,Wunderground v.1.15,2013-07-11 18:00:00,
2013-07-11 14:10:00,89.3,73.1,29.95,SSE,155,1.0,1.0,59,0.00,,,0.00,Wunderground v.1.15,2013-07-11 18:10:00,
2013-07-11 14:15:00,89.5,73.8,29.95,SSW,211,1.0,1.0,60,0.00,,,0.00,Wunderground v.1.15,2013-07-11 18:15:00,
2013-07-11 14:25:00,89.6,73.9,29.94,East,95,1.0,1.0,60,0.00,,,0.00,Wunderground v.1.15,2013-07-11 18:25:00,
2013-07-11 14:30:00,89.6,73.4,29.94,SW,215,2.0,2.0,59,0.00,,,0.00,Wunderground v.1.15,2013-07-11 18:30:00,
2013-07-11 14:40:00,90.1,73.8,29.94,South,188,1.0,1.0,59,0.00,,,0.00,Wunderground v.1.15,2013-07-11 18:40:00,
2013-07-11 14:45:00,90.5,74.2,29.93,South,169,1.0,1.0,59,0.00,,,0.00,Wunderground v.1.15,2013-07-11 18:45:00,
2013-07-11 14:55:00,91.0,74.2,29.93,SSW,202,1.0,4.0,58,0.00,,,0.00,Wunderground v.1.15,2013-07-11 18:55:00,
2013-07-11 15:00:00,90.6,73.3,29.93,SW,224,1.0,2.0,57,0.00,,,0.00,Wunderground v.1.15,2013-07-11 19:00:00,
2013-07-11 15:05:00,89.9,74.2,29.93,WSW,242,2.0,2.0,60,0.00,,,0.00,Wunderground v.1.15,2013-07-11 19:05:00,
2013-07-11 15:15:00,89.3,74.1,29.92,South,183,0.0,1.0,61,0.00,,,0.00,Wunderground v.1.15,2013-07-11 19:15:00,
2013-07-11 15:25:00,89.5,74.3,29.92,South,176,0.0,0.0,61,0.00,,,0.00,Wunderground v.1.15,2013-07-11 19:25:00,
2013-07-11 15:30:00,89.6,74.4,29.91,South,180,0.0,0.0,61,0.00,,,0.00,Wunderground v.1.15,2013-07-11 19:30:00,
2013-07-11 15:40:00,89.5,75.2,29.91,WSW,243,1.0,1.0,63,0.00,,,0.00,Wunderground v.1.15,2013-07-11 19:40:00,
2013-07-11 15:50:00,88.0,75.7,29.91,West,275,2.0,3.0,67,0.00,,,0.00,Wunderground v.1.15,2013-07-11 19:50:00,
2013-07-11 15:55:00,87.2,75.8,29.91,West,268,2.0,3.0,69,0.00,,,0.00,Wunderground v.1.15,2013-07-11 19:55:00,
2013-07-11 16:00:00,86.8,75.4,29.91,SW,233,2.0,2.0,69,0.00,,,0.00,Wunderground v.1.15,2013-07-11 20:00:00,
2013-07-11 16:10:00,86.2,75.7,29.91,SW,222,2.0,8.0,71,0.00,,,0.00,Wunderground v.1.15,2013-07-11 20:10:00,
2013-07-11 16:15:00,85.3,76.1,29.92,SSW,196,4.0,8.0,74,0.00,,,0.00,Wunderground v.1.15,2013-07-11 20:15:00,
2013-07-11 16:25:00,81.0,74.6,29.93,WSW,247,3.0,6.0,81,0.22,,,0.02,Wunderground v.1.15,2013-07-11 20:25:00,
2013-07-11 16:30:00,79.2,74.6,29.93,SW,218,3.0,3.0,86,0.13,,,0.03,Wunderground v.1.15,2013-07-11 20:30:00,
2013-07-11 16:35:00,77.9,74.1,29.94,SW,229,2.0,3.0,88,0.16,,,0.05,Wunderground v.1.15,2013-07-11 20:35:00,
2013-07-11 16:45:00,76.9,73.7,29.93,SE,138,1.0,1.0,90,0.11,,,0.06,Wunderground v.1.15,2013-07-11 20:45:00,
2013-07-11 16:55:00,76.4,73.9,29.93,ESE,108,0.0,1.0,92,0.04,,,0.07,Wunderground v.1.15,2013-07-11 20:55:00,
2013-07-11 17:00:00,76.2,73.7,29.94,ESE,109,0.0,0.0,92,0.13,,,0.08,Wunderground v.1.15,2013-07-11 21:00:00,
2013-07-11 17:10:00,76.0,73.8,29.92,SSE,148,1.0,1.0,93,0.09,,,0.09,Wunderground v.1.15,2013-07-11 21:10:00,
2013-07-11 17:15:00,75.8,73.6,29.91,South,185,0.0,1.0,93,0.06,,,0.10,Wunderground v.1.15,2013-07-11 21:15:00,
2013-07-11 17:25:00,75.4,73.2,29.92,West,272,1.0,1.0,93,0.07,,,0.11,Wunderground v.1.15,2013-07-11 21:25:00,
2013-07-11 17:30:00,75.2,73.4,29.92,West,272,2.0,2.0,94,0.07,,,0.11,Wunderground v.1.15,2013-07-11 21:30:00,
2013-07-11 17:45:00,75.2,73.7,29.93,West,272,0.0,0.0,95,0.05,,,0.12,Wunderground v.1.15,2013-07-11 21:45:00,
2013-07-11 17:55:00,75.1,73.3,29.93,WNW,292,1.0,2.0,94,0.05,,,0.13,Wunderground v.1.15,2013-07-11 21:55:00,
2013-07-11 18:00:00,75.1,73.3,29.93,WNW,292,1.0,1.0,94,0.04,,,0.13,Wunderground v.1.15,2013-07-11 22:00:00,
2013-07-11 18:10:00,75.1,73.6,29.93,WNW,292,0.0,0.0,95,0.00,,,0.13,Wunderground v.1.15,2013-07-11 22:10:00,
2013-07-11 18:15:00,75.2,73.7,29.93,NNW,331,0.0,0.0,95,0.00,,,0.13,Wunderground v.1.15,2013-07-11 22:15:00,
2013-07-11 18:25:00,75.2,74.0,29.92,NNW,331,0.0,0.0,96,0.00,,,0.13,Wunderground v.1.15,2013-07-11 22:25:00,
2013-07-11 18:30:00,75.3,74.1,29.92,NNW,331,0.0,0.0,96,0.00,,,0.13,Wunderground v.1.15,2013-07-11 22:30:00,
2013-07-11 18:40:00,75.1,73.6,29.92,NNW,331,0.0,0.0,95,0.00,,,0.13,Wunderground v.1.15,2013-07-11 22:40:00,
2013-07-11 18:45:00,74.9,73.4,29.92,NNW,331,0.0,0.0,95,0.00,,,0.13,Wunderground v.1.15,2013-07-11 22:45:00,
2013-07-11 18:55:00,74.9,73.4,29.91,NNW,331,0.0,0.0,95,0.00,,,0.13,Wunderground v.1.15,2013-07-11 22:55:00,
2013-07-11 19:00:00,74.9,73.4,29.92,NNW,331,0.0,0.0,95,0.00,,,0.13,Wunderground v.1.15,2013-07-11 23:00:00,
2013-07-11 19:10:00,75.0,73.8,29.92,NNW,331,0.0,0.0,96,0.00,,,0.13,Wunderground v.1.15,2013-07-11 23:10:00,
2013-07-11 19:15:00,75.2,74.0,29.92,NNW,331,0.0,0.0,96,0.00,,,0.13,Wunderground v.1.15,2013-07-11 23:15:00,
2013-07-11 19:20:00,75.3,74.1,29.92,NNW,331,0.0,0.0,96,0.00,,,0.13,Wunderground v.1.15,2013-07-11 23:20:00,
2013-07-11 19:30:00,75.4,74.2,29.93,NNW,331,0.0,0.0,96,0.00,,,0.13,Wunderground v.1.15,2013-07-11 23:30:00,
2013-07-11 19:35:00,75.5,74.3,29.93,NNW,331,0.0,0.0,96,0.00,,,0.13,Wunderground v.1.15,2013-07-11 23:35:00,
2013-07-11 19:45:00,75.6,74.4,29.92,NNW,331,0.0,0.0,96,0.00,,,0.13,Wunderground v.1.15,2013-07-11 23:45:00,
2013-07-11 19:55:00,75.7,74.5,29.93,NNW,331,0.0,0.0,96,0.00,,,0.13,Wunderground v.1.15,2013-07-11 23:55:00,
2013-07-11 20:00:00,75.7,74.5,29.93,NNW,331,0.0,0.0,96,0.00,,,0.13,Wunderground v.1.15,2013-07-12 00:00:00,
2013-07-11 20:15:00,75.6,74.4,29.93,WNW,293,0.0,0.0,96,0.00,,,0.13,Wunderground v.1.15,2013-07-12 00:15:00,
2013-07-11 20:25:00,75.5,74.3,29.93,WNW,293,0.0,0.0,96,0.00,,,0.13,Wunderground v.1.15,2013-07-12 00:25:00,
2013-07-11 20:30:00,75.5,74.3,29.93,WNW,293,0.0,0.0,96,0.00,,,0.13,Wunderground v.1.15,2013-07-12 00:30:00,
2013-07-11 20:40:00,75.3,74.1,29.93,SSW,209,0.0,0.0,96,0.00,,,0.13,Wunderground v.1.15,2013-07-12 00:40:00,
2013-07-11 20:45:00,75.3,74.1,29.93,SSW,209,0.0,0.0,96,0.00,,,0.13,Wunderground v.1.15,2013-07-12 00:45:00,
2013-07-11 20:50:00,75.2,74.0,29.93,SSW,209,0.0,0.0,96,0.00,,,0.13,Wunderground v.1.15,2013-07-12 00:50:00,
2013-07-11 21:00:00,75.1,73.9,29.93,SSW,209,0.0,0.0,96,0.00,,,0.13,Wunderground v.1.15,2013-07-12 01:00:00,
2013-07-11 21:15:00,74.8,73.6,29.93,SSW,209,0.0,0.0,96,0.00,,,0.13,Wunderground v.1.15,2013-07-12 01:15:00,
2013-07-11 21:20:00,74.8,73.6,29.93,SSW,209,0.0,0.0,96,0.00,,,0.13,Wunderground v.1.15,2013-07-12 01:20:00,
2013-07-11 21:25:00,74.7,73.5,29.93,SSW,209,0.0,0.0,96,0.00,,,0.13,Wunderground v.1.15,2013-07-12 01:25:00,
2013-07-11 21:35:00,74.6,73.4,29.93,SSW,209,0.0,0.0,96,0.00,,,0.13,Wunderground v.1.15,2013-07-12 01:35:00,
2013-07-11 21:40:00,74.6,73.4,29.94,SSW,209,0.0,0.0,96,0.00,,,0.13,Wunderground v.1.15,2013-07-12 01:40:00,
2013-07-11 21:50:00,74.5,73.3,29.94,SSW,209,0.0,0.0,96,0.00,,,0.13,Wunderground v.1.15,2013-07-12 01:50:00,
2013-07-11 21:55:00,74.4,73.2,29.94,SSW,209,0.0,0.0,96,0.00,,,0.13,Wunderground v.1.15,2013-07-12 01:55:00,
2013-07-11 22:00:00,74.4,73.2,29.94,SSW,209,0.0,0.0,96,0.00,,,0.13,Wunderground v.1.15,2013-07-12 02:00:00,
2013-07-11 22:10:00,74.2,73.0,29.94,SSW,209,0.0,0.0,96,0.00,,,0.13,Wunderground v.1.15,2013-07-12 02:10:00,
2013-07-11 22:15:00,74.2,73.0,29.94,SSW,209,0.0,0.0,96,0.00,,,0.13,Wunderground v.1.15,2013-07-12 02:15:00,
2013-07-11 22:25:00,74.1,72.9,29.94,SSW,209,0.0,0.0,96,0.00,,,0.13,Wunderground v.1.15,2013-07-12 02:25:00,
2013-07-11 22:30:00,74.2,73.3,29.94,SSW,209,0.0,0.0,97,0.00,,,0.13,Wunderground v.1.15,2013-07-12 02:30:00,
2013-07-11 22:40:00,74.2,73.3,29.94,SSW,209,0.0,0.0,97,0.00,,,0.13,Wunderground v.1.15,2013-07-12 02:40:00,
2013-07-11 22:50:00,74.3,73.4,29.94,SSW,209,0.0,0.0,97,0.00,,,0.13,Wunderground v.1.15,2013-07-12 02:50:00,
2013-07-11 22:55:00,74.3,73.4,29.94,SSW,209,0.0,0.0,97,0.00,,,0.13,Wunderground v.1.15,2013-07-12 02:55:00,
2013-07-11 23:05:00,74.3,73.4,29.94,SSW,209,0.0,0.0,97,0.00,,,0.13,Wunderground v.1.15,2013-07-12 03:05:00,
2013-07-11 23:15:00,74.2,73.3,29.95,SSW,209,0.0,0.0,97,0.00,,,0.13,Wunderground v.1.15,2013-07-12 03:15:00,
2013-07-11 23:20:00,74.2,73.0,29.94,SSW,209,0.0,0.0,96,0.00,,,0.13,Wunderground v.1.15,2013-07-12 03:20:00,
2013-07-11 23:25:00,74.1,72.9,29.95,SSW,209,0.0,0.0,96,0.00,,,0.13,Wunderground v.1.15,2013-07-12 03:25:00,
2013-07-11 23:35:00,74.1,73.2,29.95,SSW,209,0.0,0.0,97,0.00,,,0.13,Wunderground v.1.15,2013-07-12 03:35:00,
2013-07-11 23:40:00,74.1,73.2,29.95,SSW,209,0.0,0.0,97,0.00,,,0.13,Wunderground v.1.15,2013-07-12 03:40:00,
2013-07-11 23:50:00,74.1,73.2,29.95,SSW,209,0.0,0.0,97,0.00,,,0.13,Wunderground v.1.15,2013-07-12 03:50:00,
2013-07-11 23:55:00,74.1,73.2,29.94,SSW,209,0.0,0.0,97,0.00,,,0.13,Wunderground v.1.15,2013-07-12 03:55:00,